• In Czech Republic
  • List of Countries
  • For 7 days
  • Water Temperature
  • Satellite Maps
  • Weather Map
  • Weather Widgets
  • user-avatar
    Login

    Hourly Weather Belmopan

    Today, 24 September, Sunday

    Time Temperature Precipitation Wind Pressure Humidity
    00:00 +24°C° 0 mm 0 mps 749 mmHg 97%
    01:00 +24°C° 0.1 mm 0 mps 748 mmHg 97%
    02:00 +24°C° 0.1 mm 0 mps 748 mmHg 97%
    03:00 +24°C° 0.1 mm 0 mps 748 mmHg 97%
    04:00 +24°C° 0.7 mm 0 mps 748 mmHg 98%
    05:00 +24°C° 0.7 mm 0 mps 748 mmHg 98%
    06:00 +24°C° 0.7 mm 0 mps 748 mmHg 98%
    07:00 +25°C° 0.9 mm 0 mps 748 mmHg 91%
    08:00 +29°C° 0.9 mm 1 mps 749 mmHg 85%
    09:00 +31°C° 0.9 mm 1 mps 749 mmHg 78%
    10:00 +31°C° 2 mm 1 mps 749 mmHg 81%
    11:00 +31°C° 2 mm 1 mps 748 mmHg 83%
    12:00 +32°C° 2 mm 1 mps 748 mmHg 85%
    13:00 +32°C° 0.8 mm 1 mps 748 mmHg 80%
    14:00 +32°C° 0.8 mm 1 mps 747 mmHg 75%
    15:00 +33°C° 0.8 mm 1 mps 746 mmHg 69%
    16:00 +31°C° 0.2 mm 1 mps 746 mmHg 75%
    17:00 +30°C° 0.2 mm 1 mps 747 mmHg 81%
    18:00 +29°C° 0.2 mm 1 mps 747 mmHg 87%
    19:00 +28°C° 0.2 mm 1 mps 747 mmHg 90%
    20:00 +27°C° 0.2 mm 1 mps 748 mmHg 94%
    21:00 +27°C° 0.2 mm 1 mps 748 mmHg 98%
    22:00 +27°C° 0.1 mm 1 mps 748 mmHg 98%
    23:00 +26°C° 0.1 mm 1 mps 748 mmHg 98%

    Tomorrow, 25 September, Monday

    Time Temperature Precipitation Wind Pressure Humidity
    00:00 +24°C° 0.1 mm 0 mps 748 mmHg 98%
    01:00 +24°C° 0 mm 0 mps 748 mmHg 97%
    02:00 +24°C° 0 mm 0 mps 747 mmHg 97%
    03:00 +24°C° 0 mm 0 mps 747 mmHg 97%
    04:00 +24°C° 0.8 mm 0 mps 747 mmHg 97%
    05:00 +24°C° 0.8 mm 0 mps 747 mmHg 98%
    06:00 +24°C° 0.8 mm 0 mps 747 mmHg 98%
    07:00 +27°C° 0.9 mm 1 mps 748 mmHg 96%
    08:00 +28°C° 0.9 mm 1 mps 748 mmHg 94%
    09:00 +29°C° 0.9 mm 1 mps 748 mmHg 92%
    10:00 +30°C° 1.5 mm 1 mps 748 mmHg 91%
    11:00 +30°C° 1.5 mm 1 mps 748 mmHg 89%
    12:00 +30°C° 1.5 mm 1 mps 748 mmHg 88%
    13:00 +30°C° 1.3 mm 1 mps 747 mmHg 89%
    14:00 +30°C° 1.3 mm 1 mps 746 mmHg 91%
    15:00 +29°C° 1.3 mm 1 mps 746 mmHg 92%
    16:00 +29°C° 0.7 mm 1 mps 746 mmHg 94%
    17:00 +28°C° 0.7 mm 1 mps 746 mmHg 95%
    18:00 +27°C° 0.7 mm 1 mps 746 mmHg 97%
    19:00 +27°C° 1 mm 1 mps 747 mmHg 97%
    20:00 +27°C° 1 mm 1 mps 747 mmHg 97%
    21:00 +27°C° 1 mm 1 mps 748 mmHg 97%
    22:00 +26°C° 0.5 mm 1 mps 748 mmHg 97%
    23:00 +26°C° 0.5 mm 1 mps 747 mmHg 97%

    Day after tomorrow, 26 September, Tuesday

    Time Temperature Precipitation Wind Pressure Humidity
    00:00 +26°C° 0.5 mm 1 mps 747 mmHg 97%
    01:00 +26°C° 0.7 mm 1 mps 747 mmHg 97%
    02:00 +26°C° 0.7 mm 1 mps 747 mmHg 97%
    03:00 +26°C° 0.7 mm 1 mps 746 mmHg 97%
    04:00 +26°C° 0.7 mm 1 mps 746 mmHg 97%
    05:00 +24°C° 0.7 mm 0 mps 747 mmHg 97%
    06:00 +24°C° 0.7 mm 0 mps 747 mmHg 97%
    07:00 +25°C° 0.5 mm 0 mps 747 mmHg 92%
    08:00 +27°C° 0.5 mm 0 mps 748 mmHg 88%
    09:00 +28°C° 0.5 mm 0 mps 748 mmHg 83%
    10:00 +31°C° 0.6 mm 1 mps 748 mmHg 78%
    11:00 +33°C° 0.6 mm 1 mps 747 mmHg 72%
    12:00 +34°C° 0.6 mm 1 mps 747 mmHg 67%
    13:00 +34°C° 0.3 mm 1 mps 746 mmHg 66%
    14:00 +34°C° 0.3 mm 1 mps 745 mmHg 64%
    15:00 +34°C° 0.3 mm 2 mps 745 mmHg 63%
    16:00 +32°C° 0.2 mm 1 mps 745 mmHg 71%
    17:00 +30°C° 0.2 mm 1 mps 745 mmHg 79%
    18:00 +29°C° 0.2 mm 1 mps 745 mmHg 86%
    19:00 +28°C° 0.5 mm 1 mps 746 mmHg 89%
    20:00 +28°C° 0.5 mm 1 mps 747 mmHg 92%
    21:00 +28°C° 0.5 mm 1 mps 747 mmHg 94%
    22:00 +27°C° 0.4 mm 1 mps 747 mmHg 94%
    23:00 +27°C° 0.4 mm 1 mps 746 mmHg 94%

    27 September, Wednesday

    Time Temperature Precipitation Wind Pressure Humidity
    00:00 +27°C° 0.4 mm 1 mps 746 mmHg 94%
    01:00 +27°C° 0 mm 1 mps 746 mmHg 94%
    02:00 +27°C° 0 mm 1 mps 745 mmHg 94%
    03:00 +27°C° 0 mm 1 mps 745 mmHg 94%
    04:00 +27°C° 0.4 mm 1 mps 745 mmHg 94%
    05:00 +25°C° 0.4 mm 0 mps 745 mmHg 94%
    06:00 +24°C° 0.4 mm 0 mps 746 mmHg 94%
    07:00 +26°C° 0.1 mm 0 mps 746 mmHg 88%
    08:00 +27°C° 0.1 mm 0 mps 747 mmHg 82%
    09:00 +31°C° 0.1 mm 1 mps 747 mmHg 76%
    10:00 +33°C° 0 mm 1 mps 747 mmHg 66%
    11:00 +34°C° 0 mm 1 mps 747 mmHg 57%
    12:00 +36°C° 0 mm 1 mps 746 mmHg 48%
    13:00 +36°C° 0 mm 1 mps 746 mmHg 48%
    14:00 +36°C° 0 mm 1 mps 745 mmHg 48%
    15:00 +36°C° 0 mm 1 mps 745 mmHg 49%
    16:00 +34°C° 0.3 mm 1 mps 745 mmHg 61%
    17:00 +31°C° 0.3 mm 1 mps 745 mmHg 74%
    18:00 +29°C° 0.3 mm 1 mps 746 mmHg 87%
    19:00 +28°C° 0.3 mm 1 mps 746 mmHg 90%
    20:00 +28°C° 0.3 mm 1 mps 747 mmHg 93%
    21:00 +27°C° 0.3 mm 1 mps 748 mmHg 96%
    22:00 +27°C° 0.3 mm 1 mps 747 mmHg 96%
    23:00 +27°C° 0.3 mm 1 mps 747 mmHg 97%

    28 September, Thursday

    Time Temperature Precipitation Wind Pressure Humidity
    00:00 +27°C° 0.3 mm 1 mps 747 mmHg 97%
    01:00 +27°C° 0.9 mm 1 mps 746 mmHg 97%
    02:00 +24°C° 0.9 mm 0 mps 746 mmHg 97%
    03:00 +24°C° 0.9 mm 0 mps 746 mmHg 98%
    04:00 +24°C° 0.5 mm 0 mps 746 mmHg 97%
    05:00 +24°C° 0.5 mm 0 mps 746 mmHg 97%
    06:00 +24°C° 0.5 mm 0 mps 747 mmHg 97%
    07:00 +26°C° 0 mm 0 mps 747 mmHg 90%
    08:00 +27°C° 0 mm 0 mps 747 mmHg 83%
    09:00 +29°C° 0 mm 0 mps 748 mmHg 77%
    10:00 +31°C° 0.1 mm 0 mps 747 mmHg 68%
    11:00 +32°C° 0.1 mm 0 mps 747 mmHg 60%
    12:00 +36°C° 0.1 mm 1 mps 746 mmHg 51%
    13:00 +35°C° 0.1 mm 1 mps 746 mmHg 55%
    14:00 +35°C° 0.1 mm 1 mps 745 mmHg 59%
    15:00 +34°C° 0.1 mm 1 mps 744 mmHg 63%
    16:00 +32°C° 0.9 mm 1 mps 745 mmHg 72%
    17:00 +31°C° 0.9 mm 1 mps 746 mmHg 81%
    18:00 +29°C° 0.9 mm 1 mps 746 mmHg 90%
    19:00 +28°C° 1.1 mm 1 mps 747 mmHg 92%
    20:00 +28°C° 1.1 mm 1 mps 747 mmHg 95%
    21:00 +27°C° 1.1 mm 1 mps 748 mmHg 98%
    22:00 +27°C° 0.3 mm 1 mps 747 mmHg 98%
    23:00 +27°C° 0.4 mm 1 mps 747 mmHg 98%

    29 September, Friday

    Time Temperature Precipitation Wind Pressure Humidity
    00:00 +27°C° 0.4 mm 1 mps 747 mmHg 98%
    01:00 +25°C° 0.9 mm 0 mps 747 mmHg 98%
    02:00 +25°C° 0.9 mm 0 mps 747 mmHg 98%
    03:00 +25°C° 0.9 mm 0 mps 747 mmHg 98%
    04:00 +25°C° 0.8 mm 0 mps 747 mmHg 98%
    05:00 +25°C° 0.8 mm 0 mps 747 mmHg 98%
    06:00 +24°C° 0.8 mm 0 mps 748 mmHg 98%
    07:00 +25°C° 0.3 mm 0 mps 748 mmHg 97%
    08:00 +26°C° 0.3 mm 0 mps 749 mmHg 95%
    09:00 +27°C° 0.3 mm 0 mps 749 mmHg 93%
    10:00 +28°C° 0.5 mm 0 mps 749 mmHg 89%
    11:00 +29°C° 0.5 mm 0 mps 748 mmHg 84%
    12:00 +29°C° 0.5 mm 0 mps 748 mmHg 80%
    13:00 +32°C° 0.1 mm 1 mps 747 mmHg 75%
    14:00 +32°C° 0.1 mm 1 mps 747 mmHg 71%
    15:00 +32°C° 0.1 mm 1 mps 746 mmHg 67%
    16:00 +31°C° 0 mm 1 mps 746 mmHg 73%
    17:00 +30°C° 0 mm 1 mps 747 mmHg 80%
    18:00 +29°C° 0 mm 1 mps 747 mmHg 87%
    19:00 +28°C° 0.2 mm 1 mps 748 mmHg 90%
    20:00 +28°C° 0.2 mm 1 mps 748 mmHg 94%
    21:00 +27°C° 0.2 mm 1 mps 749 mmHg 97%
    22:00 +25°C° 0.1 mm 0 mps 749 mmHg 97%
    23:00 +25°C° 0.1 mm 0 mps 749 mmHg 98%
    Show more